Location: Rodson Ranch
(38.7188°N, 119.3202°W)
Time: 17:13:30
(UTC+00:00)

Cosmos 2278 - Pass Details

Date: 29 October 2020
Orbit: 842 x 851 km, 71.1° (Epoch: 23 November)

Event Time Altitude Azimuth Distance (km) Brightness Sun altitude
Exits shadow 13:23:56 - 328° (NNW) 3,279 6.4 -11.8°
Reaches altitude 10° 13:26:11 10° 322° (NW) 2,465 5.7 -11.4°
Maximum altitude 13:31:23 39° 255° (WSW) 1,235 4.1 -10.4°
Drops below altitude 10° 13:36:34 10° 188° (S) 2,450 6.2 -9.4°
Sets 13:39:08 0° 180° (S) 3,381 7.0 -8.9°
